Location: *
(38.3914°N, 75.0697°W)
Time: 05:54:27
(UTC+00:00)

Cosmos 921 Rocket - Pass Details

Date: 17 February 2020
Orbit: 572 x 631 km, 75.8° (Epoch: 09 April)

Event Time Altitude Azimuth Distance (km) Brightness Sun altitude
Rises 10:34:03 0° 347° (NNW) 2,903 6.3 -15.3°
Reaches altitude 10° 10:36:21 10° 351° (N) 1,985 5.5 -14.9°
Maximum altitude 10:40:44 61° 72° (ENE) 691 3.6 -14.0°
Drops below altitude 10° 10:45:00 10° 153° (SSE) 1,935 6.0 -13.2°
Sets 10:47:13 0° 157° (SSE) 2,822 6.9 -12.7°
